Theta_e
330 331 330 324 315 316 310 309 313 314 314 319 323 320 319 321 318 317 336 339 341 343 342 347 350 351 353 354 354 354 355 355 355 355 354 355 355 354 354 354 354 354 354 351 350 350 350 351 350
323 325 323 317 312 308 308 311 310 317 319 321 322 322 321 320 330 331 333 341 344 345 342 343 349 351 352 352 353 354 355 355 354 354 354 354 354 354 353 352 352 353 353 351 350 349 350 349 349
321 321 315 312 313 311 307 309 311 316 320 320 320 325 323 322 331 332 335 344 345 345 343 344 348 350 351 352 352 353 353 353 352 352 353 353 353 353 353 351 352 352 353 351 349 349 348 347 346
317 316 314 307 309 310 309 310 312 314 319 321 321 317 327 333 332 334 338 345 346 346 345 346 346 348 350 351 352 352 351 350 350 351 352 353 352 352 352 350 351 352 352 351 348 347 345 344 343
317 314 306 305 306 308 310 310 311 311 314 319 322 318 323 335 337 336 338 344 345 347 347 347 345 347 349 351 351 350 349 349 350 350 350 351 352 351 350 350 350 351 350 350 349 347 345 344 343
310 312 304 302 303 307 309 310 310 309 312 318 320 320 325 338 337 335 338 344 348 347 349 345 347 347 348 349 349 348 348 348 349 349 350 350 350 349 349 349 349 349 348 348 347 345 345 345 343
307 306 303 303 303 304 306 311 308 308 311 312 324 318 328 333 340 337 338 344 349 350 350 348 348 348 345 345 345 345 346 347 347 347 348 348 347 347 349 349 348 348 347 346 345 345 344 344 343
311 307 301 303 301 301 306 308 309 308 309 315 329 319 320 333 341 339 339 342 348 351 351 349 349 349 349 351 343 343 345 345 346 346 346 345 345 347 347 347 347 346 346 345 344 343 343 342 340
309 303 302 301 301 303 308 306 310 311 309 322 321 319 326 338 342 339 338 339 343 347 350 351 349 348 350 349 348 345 345 345 345 346 344 342 345 348 349 344 344 344 342 342 342 341 340 339 338
305 302 300 304 306 305 307 306 307 307 309 309 310 314 319 334 339 336 335 334 337 342 347 350 351 349 349 345 348 348 348 349 350 349 348 344 345 345 343 343 342 342 340 340 340 339 339 336 341
305 304 303 305 306 306 305 306 308 306 304 306 307 312 324 321 332 336 335 334 334 339 344 347 349 350 348 345 345 343 344 345 347 349 348 345 345 345 344 344 343 343 340 340 339 339 339 341 340
303 305 306 304 303 303 302 306 305 304 304 308 309 311 313 324 328 332 335 335 334 336 341 346 347 349 349 345 344 344 342 343 344 347 350 346 345 344 342 340 340 340 338 337 337 338 340 340 342
303 303 302 302 302 302 303 302 305 303 306 309 309 310 310 311 317 332 335 338 336 335 340 344 347 348 348 347 345 344 343 342 343 345 348 346 344 344 342 342 340 341 340 338 338 337 338 339 340
301 300 300 300 300 300 299 301 305 303 306 306 308 308 309 310 311 318 331 334 336 336 338 344 346 348 349 348 348 345 345 344 344 343 345 348 345 344 342 341 340 340 340 340 339 338 338 338 339
299 296 298 298 299 297 301 300 299 303 305 305 307 308 309 310 311 313 318 330 336 335 337 341 345 347 348 348 348 347 345 345 343 342 344 347 347 345 344 340 339 339 340 342 340 339 339 338 339
296 297 294 296 298 298 300 296 300 305 305 305 306 307 308 310 311 314 317 321 332 336 336 338 341 345 348 348 347 345 345 346 344 343 343 345 345 345 345 340 340 339 339 340 338 338 337 336 337
295 292 292 293 298 297 299 293 300 304 305 305 306 307 309 311 313 316 317 317 318 333 337 336 340 341 345 347 346 346 346 345 344 344 342 344 344 343 343 339 338 340 339 338 336 336 336 333 334
291 291 292 291 295 298 297 297 302 305 305 306 307 308 310 311 312 316 318 320 320 322 334 338 339 340 343 344 345 343 343 343 344 343 343 343 342 342 342 340 339 339 337 336 336 336 336 335 333
294 293 292 294 295 296 298 298 301 304 305 305 306 307 309 310 313 315 316 318 318 320 322 327 338 341 340 339 338 338 337 339 340 342 344 344 342 342 342 339 339 340 337 336 338 336 335 333 335
293 293 291 294 295 297 298 297 301 303 304 305 306 306 308 309 310 312 314 315 317 318 319 322 324 335 341 340 339 338 336 338 339 341 342 344 343 343 342 342 338 338 336 337 338 337 333 332 335
293 292 291 291 294 296 296 295 298 302 304 306 306 307 308 308 308 309 310 313 314 314 317 318 321 324 331 341 342 340 338 337 336 337 339 343 343 343 344 341 341 342 340 335 341 339 337 329 333
290 293 292 291 293 291 294 289 295 299 300 303 305 306 307 308 309 310 310 310 312 313 315 316 318 321 327 333 340 339 335 333 335 337 338 340 343 343 344 345 343 344 341 340 340 339 339 337 331
290 294 293 292 293 294 291 291 292 297 297 300 303 305 307 308 309 309 309 310 311 312 312 313 315 317 320 326 334 340 338 338 337 338 338 341 343 343 342 344 345 345 344 344 343 343 343 338 336
295 294 294 294 293 287 289 291 291 295 296 299 302 305 306 307 309 309 310 310 309 310 310 310 310 311 314 318 320 333 339 339 337 337 336 336 338 340 342 342 345 347 345 344 342 343 342 341 339
295 292 287 286 286 285 291 291 292 296 299 300 301 303 305 306 307 307 307 307 307 307 307 308 308 306 307 311 314 312 323 340 338 338 339 337 336 337 340 341 344 343 346 344 343 343 343 342 340
292 292 289 279 284 285 291 287 292 297 300 302 303 304 304 304 304 304 305 306 305 306 305 305 304 306 305 304 308 310 309 312 331 338 339 340 339 339 343 343 342 342 342 343 344 343 342 343 342
291 291 294 287 288 286 290 291 295 296 297 299 300 301 301 302 303 303 303 304 305 305 305 303 302 302 303 303 304 306 307 309 310 311 314 333 342 341 343 343 341 341 341 342 342 341 341 341 342
295 296 289 291 282 280 286 288 291 292 294 297 298 299 301 302 302 303 303 303 303 304 304 304 302 301 302 302 302 304 304 306 308 309 309 310 312 328 337 339 341 341 341 342 342 341 341 342 342
291 290 291 292 290 285 283 288 296 294 296 296 298 299 301 302 302 302 302 303 303 304 303 302 301 300 300 301 301 302 302 304 304 305 306 307 310 311 313 334 337 338 340 341 341 341 340 338 338
293 290 291 287 284 288 287 288 297 297 297 297 297 299 301 302 303 303 302 302 302 302 302 301 300 299 300 300 300 301 302 301 302 303 303 305 306 308 309 312 324 334 337 336 335 339 339 337 336
Wind_Speed
7 9 4 6 8 7 6 6 3 5 1 4 4 1 4 7 8 7 7 10 22 20 19 18 13 14 14 17 17 16 15 15 16 15 15 15 15 14 12 11 12 13 15 17 17 17 17 16 14
5 4 6 5 9 7 7 7 9 8 6 3 3 3 2 8 5 9 13 12 21 20 18 19 14 15 15 17 17 16 16 15 15 15 14 14 14 14 13 10 11 13 14 16 17 18 16 14 12
6 6 6 5 4 4 7 9 10 4 1 2 1 4 4 5 5 11 12 20 22 19 18 18 14 15 15 15 18 16 16 14 14 14 15 14 14 14 14 11 12 14 14 16 16 15 14 11 10
5 6 5 8 4 8 8 9 11 1 3 1 5 3 6 7 3 6 18 22 20 18 17 17 12 13 15 16 16 16 15 14 13 14 13 15 14 14 12 11 12 15 15 15 16 15 13 11 11
5 4 6 5 5 5 6 10 8 10 5 6 3 5 5 6 6 12 18 18 20 18 15 17 10 11 14 15 16 16 14 13 14 13 13 13 14 14 13 11 11 12 14 15 15 15 14 12 11
5 4 7 10 7 4 5 11 6 11 8 6 4 4 7 5 7 15 16 17 17 17 15 17 12 9 11 14 14 15 14 13 13 13 13 13 12 12 11 11 10 12 11 12 11 11 10 8 8
8 6 3 1 7 8 5 12 11 13 13 13 8 6 5 5 7 13 16 14 15 14 14 15 15 13 6 8 11 12 14 13 13 12 12 12 12 11 11 10 10 10 11 11 11 10 10 8 7
4 5 4 1 5 7 7 6 9 13 10 10 9 10 14 6 9 12 13 14 13 13 13 14 14 14 14 12 6 10 12 13 12 12 10 10 10 10 10 10 10 11 10 10 10 10 9 7 6
3 7 4 3 3 8 7 9 10 10 8 13 12 14 12 8 11 12 12 15 15 12 14 13 14 14 14 13 12 8 9 11 11 11 10 10 11 12 13 10 12 9 9 10 10 10 9 7 6
4 5 5 3 6 6 6 9 10 7 12 15 18 19 6 1 9 12 16 16 18 18 15 14 14 14 13 11 13 14 13 12 12 13 14 11 11 11 12 10 9 8 8 9 8 8 7 8 9
1 2 6 6 9 9 9 7 8 8 11 17 19 20 18 0 7 11 13 14 17 16 14 16 15 15 15 11 10 8 8 9 10 14 13 12 9 9 8 7 8 9 9 9 9 9 9 11 8
7 6 4 7 6 7 10 6 14 16 11 12 14 14 16 13 5 7 12 14 15 16 16 16 17 15 15 11 10 10 9 10 9 12 14 10 8 10 10 8 11 10 9 11 11 8 10 10 10
7 6 7 6 4 13 8 5 5 15 16 14 13 13 15 15 16 5 7 11 12 15 16 17 17 16 15 14 11 11 10 10 11 11 14 11 11 10 10 9 9 10 10 10 10 10 10 10 11
4 5 8 8 9 9 12 4 3 18 19 16 14 14 14 14 13 11 4 8 13 14 15 16 17 17 16 15 14 11 10 11 11 11 12 15 11 10 11 10 11 10 10 10 10 10 10 10 10
5 6 5 14 11 6 12 9 13 18 16 15 16 13 14 14 13 11 12 7 12 14 15 16 16 18 19 18 15 12 11 11 11 11 14 15 15 13 12 11 11 11 11 12 10 11 10 9 10
4 3 7 12 15 7 12 11 18 19 18 19 19 17 15 16 16 17 15 11 8 12 17 17 15 18 19 17 15 13 12 12 12 12 12 16 17 16 13 11 11 11 10 10 11 10 10 11 11
2 7 7 8 17 4 13 6 14 15 16 18 18 18 18 18 21 22 21 19 17 9 13 17 18 19 19 18 14 14 15 13 12 12 12 15 17 17 14 12 11 12 11 11 11 11 11 10 11
9 9 9 9 12 13 16 16 17 18 18 19 20 20 21 22 24 23 24 22 20 23 9 14 15 18 18 15 14 12 12 12 12 13 13 16 14 18 15 13 13 12 11 12 11 13 11 11 10
11 12 14 11 7 8 16 17 18 20 21 22 22 21 22 25 23 23 23 23 24 23 21 24 13 16 14 14 14 15 15 13 13 14 18 18 16 18 18 14 14 13 13 14 13 13 14 11 10
8 11 10 11 7 11 14 17 17 18 20 21 22 23 23 24 27 28 27 25 26 24 21 21 19 18 15 14 14 13 13 14 14 15 17 19 21 20 18 17 15 16 14 15 15 15 12 12 11
10 10 9 9 7 8 8 16 11 13 17 18 21 21 22 23 24 25 27 26 25 28 26 22 21 21 19 18 14 13 13 12 14 16 16 18 21 21 20 19 16 14 14 13 14 15 17 13 11
8 5 3 4 9 4 5 7 10 7 13 16 16 17 19 20 21 22 24 25 25 24 24 26 25 24 19 21 17 21 16 16 14 14 15 15 21 22 21 20 19 17 13 15 14 14 14 14 13
6 3 0 3 7 9 5 3 5 4 11 13 14 15 16 17 19 21 22 22 24 23 23 23 26 27 26 25 17 16 20 15 13 13 16 17 16 21 22 20 19 18 15 15 16 14 15 14 13
1 6 7 6 5 4 4 5 7 4 8 11 13 13 15 16 17 18 20 20 21 22 23 23 26 28 28 27 24 19 22 18 16 15 13 13 13 14 19 20 18 17 16 17 15 16 17 15 14
5 8 5 6 6 4 2 0 9 3 6 9 12 14 16 16 17 18 19 20 21 24 24 22 26 26 25 25 26 23 22 18 20 19 14 15 12 12 14 18 17 16 17 17 16 16 16 17 15
4 3 2 5 3 4 4 4 8 4 6 7 10 12 14 16 16 17 18 17 18 21 23 23 24 24 21 22 23 19 25 16 14 14 14 13 13 14 14 15 17 20 19 17 17 14 14 16 15
4 3 3 4 3 4 5 6 8 3 5 6 8 10 13 14 15 17 17 17 18 18 19 20 21 20 20 19 18 18 18 19 20 19 20 15 15 13 16 16 17 18 19 20 19 15 17 17 17
5 4 4 3 5 3 7 3 4 6 2 4 6 8 10 11 13 14 15 16 17 17 16 15 17 19 18 18 16 15 16 16 15 16 20 18 19 21 14 14 17 19 19 19 19 16 18 17 14
7 5 2 2 4 2 2 4 5 4 1 4 5 6 8 10 11 13 13 15 15 16 17 16 14 17 17 17 16 16 15 15 15 15 17 17 15 18 19 15 14 16 17 17 17 18 19 18 16
1 2 4 5 7 2 5 1 8 5 2 4 4 4 7 9 10 11 12 14 15 16 18 16 16 16 16 15 15 15 14 15 15 15 17 17 17 17 17 16 16 11 15 14 16 18 17 17 16
Wind_Direction
181 190 225 231 241 233 80 52 336 343 75 37 113 250 359 360 353 25 135 142 143 151 153 159 147 152 148 136 133 133 137 138 135 134 133 130 125 121 117 115 118 121 125 124 124 123 121 119 115
219 206 228 276 258 208 88 21 22 30 37 90 155 178 216 58 65 104 136 162 156 150 154 157 151 149 148 140 136 136 138 137 135 136 136 132 127 124 119 115 121 127 130 131 131 130 129 126 115
209 247 272 284 263 53 91 37 13 65 88 274 190 278 6 55 75 140 118 156 152 154 159 145 155 149 149 147 137 138 138 138 139 139 138 133 132 127 126 127 129 134 135 134 132 129 126 111 102
228 195 209 257 125 77 60 41 10 73 155 280 335 104 112 41 98 121 145 153 154 157 161 134 154 152 149 147 140 139 140 140 141 141 140 137 136 133 131 135 140 141 138 136 134 131 123 116 119
224 247 232 217 120 102 71 35 17 29 353 333 329 73 57 65 98 129 149 158 158 158 160 158 154 156 151 148 145 141 141 142 142 143 141 142 142 142 142 144 144 143 143 143 145 146 147 146 141
216 277 232 202 121 112 71 9 17 16 13 40 331 354 63 96 134 139 153 161 160 159 158 159 158 159 159 152 150 145 145 145 146 145 146 147 147 147 149 148 146 141 142 142 146 151 146 135 135
273 240 269 147 122 136 35 339 19 357 33 17 346 8 76 131 122 145 151 160 161 161 165 161 172 170 160 152 153 149 148 149 149 149 152 152 151 154 152 150 146 146 147 150 154 157 158 157 153
265 266 208 120 171 103 20 356 360 7 23 351 344 27 32 75 147 148 152 157 167 165 171 171 173 176 180 177 160 156 153 152 152 153 154 155 154 156 156 151 154 156 157 158 162 167 171 168 170
273 237 195 112 223 92 29 3 20 332 336 72 58 38 0 114 150 162 167 168 168 178 176 177 179 180 182 183 174 169 160 155 153 154 154 157 178 178 165 183 148 166 165 167 172 178 180 184 194
266 262 74 28 42 3 354 352 2 351 54 8 356 350 26 189 186 186 186 182 184 177 183 180 185 186 186 188 176 191 182 183 186 182 174 188 181 190 189 156 159 174 176 178 185 193 193 207 204
42 57 142 71 15 342 341 15 1 6 43 12 2 359 3 359 222 223 216 200 195 188 181 188 190 188 193 195 182 191 188 191 195 194 185 197 182 187 201 173 180 186 189 195 196 196 216 213 233
134 83 53 36 39 18 356 341 84 52 24 348 355 1 11 17 335 248 233 221 201 195 192 189 191 192 195 196 194 196 196 197 199 199 196 198 195 185 200 192 189 195 184 205 200 207 219 223 226
105 114 90 53 52 22 328 1 83 34 2 346 351 360 9 8 2 338 274 243 215 206 200 195 193 200 196 207 197 205 208 200 205 202 200 208 203 197 198 200 199 196 195 200 206 217 213 219 228
91 98 105 50 35 32 356 359 198 4 347 346 350 354 357 356 359 358 295 251 227 219 211 204 196 201 204 205 209 205 206 204 216 205 210 212 211 201 206 205 208 203 206 207 210 213 217 224 227
110 136 160 29 16 29 327 103 28 352 353 354 359 359 357 357 356 5 346 281 232 226 222 209 206 208 204 204 206 214 210 215 210 218 211 213 216 210 218 212 211 210 206 215 212 216 222 229 228
132 155 179 49 19 6 310 102 9 5 6 11 4 6 7 6 3 11 7 338 278 226 218 216 216 211 211 210 206 207 217 213 218 216 216 212 223 221 214 217 214 216 214 209 213 213 217 225 230
125 115 74 100 25 27 30 54 14 19 22 18 20 22 17 16 15 14 5 2 344 262 235 223 218 223 214 218 221 216 219 217 219 219 219 213 217 221 223 224 221 218 216 217 219 218 224 223 232
131 123 100 62 26 50 75 64 49 39 41 37 33 30 29 27 22 18 18 17 7 359 300 242 229 229 222 219 219 226 224 230 230 222 221 220 217 220 218 230 227 220 223 220 219 225 219 233 237
103 101 103 86 60 85 69 71 59 55 48 41 41 38 37 35 32 28 28 24 17 11 360 345 253 241 234 224 219 214 221 219 225 234 224 221 223 217 217 222 219 222 225 227 217 223 227 222 230
104 103 101 97 65 111 83 73 67 57 55 50 46 47 42 37 34 31 31 29 28 20 11 2 344 307 239 241 236 235 228 219 225 225 228 221 216 217 216 218 220 214 224 227 224 221 227 229 221
73 81 88 92 105 117 134 71 51 61 57 49 47 45 43 36 31 27 24 26 23 25 18 11 358 337 313 244 249 242 239 239 227 226 225 221 223 220 216 217 223 219 217 224 221 219 219 229 222
101 79 89 122 199 94 260 127 53 48 51 46 37 32 28 26 23 24 22 22 21 20 15 15 11 5 347 312 245 251 238 233 229 231 228 225 220 222 219 214 212 221 221 221 221 218 224 223 230
95 292 42 143 120 162 66 161 75 37 39 30 31 27 21 19 22 20 21 21 20 16 15 13 11 13 6 346 308 244 247 248 247 235 239 228 228 223 226 221 223 216 214 224 226 224 217 225 231
327 160 145 165 167 176 354 276 104 43 16 13 9 19 21 16 17 20 18 15 20 23 21 15 14 12 7 9 356 317 246 252 258 254 247 235 231 230 226 227 226 225 223 221 220 223 228 226 235
188 192 160 192 194 62 106 289 79 57 11 16 19 22 25 23 21 16 20 13 16 17 15 17 10 17 3 2 12 3 349 258 257 261 261 252 241 235 234 224 228 228 231 230 225 224 224 223 226
83 275 314 194 188 98 153 149 122 86 58 33 29 24 29 30 28 25 22 18 17 12 13 12 8 3 7 359 3 0 15 359 332 275 255 264 251 245 232 231 225 226 228 228 226 224 223 223 225
145 138 25 92 60 239 128 117 157 120 82 56 36 35 30 29 27 24 19 19 14 15 13 5 11 359 1 3 356 0 1 5 3 360 11 328 267 250 245 234 231 232 229 224 220 221 221 220 218
314 116 180 190 195 209 172 221 121 164 75 43 43 31 30 25 21 18 14 14 12 14 6 13 9 360 353 360 358 352 360 2 356 350 355 4 343 337 276 242 230 233 230 232 226 223 223 225 223
160 169 181 44 308 282 271 134 92 143 76 352 17 19 17 13 12 11 8 7 9 6 7 12 0 358 357 352 355 347 352 356 356 2 346 353 341 336 349 311 248 233 233 232 227 229 228 220 223
225 158 243 265 166 240 318 57 134 145 100 333 343 357 358 354 3 6 3 1 359 2 359 357 2 354 2 341 352 346 347 353 356 346 343 357 340 336 343 335 342 304 237 230 225 231 221 223 211